Regional Weather Roundup
Issued by NWS

Home | Current Version | Previous Version | Graphics & Text | Print | Product List | Glossary On
Versions: 1 2 3 4 5 6 7 8 9 10 11 12 13 14 15 16 17 18 19 20 21 22 23 24 25 26 27 28 29 30 31 32 33 34 35 36 37 38 39 40 41 42 43 44 45 46 47 48 49 50
000
ASUS45 KPSR 270910
RWRAZ

ARIZONA REGIONAL HOURLY WEATHER ROUNDUP
NATIONAL WEATHER SERVICE PHOENIX AZ
200 AM MST MON APR 27 2015

NOTE: FAIR INDICATES FEW OR NO CLOUDS BELOW 12,000 FEET WITH NO
SIGNIFICANT WEATHER AND/OR OBSTRUCTIONS TO VISIBILITY.

AZZ001>003-036-271000-
NORTHWEST ARIZONA

CITY           SKY/WX    TMP DP  RH WIND       PRES   REMARKS
BULLHEAD CITY  CLEAR     68  23  18 N18G24    29.92S
KINGMAN        CLEAR     41  27  57 CALM      29.98F
$$

AZZ004>008-015-016-018-271000-
NORTH CENTRAL ARIZONA

CITY           SKY/WX    TMP DP  RH WIND       PRES   REMARKS
GRAND CANYON   CLEAR     33  26  75 NE12      30.03S WCI  24
WILLIAMS       CLEAR     28  25  86 CALM      30.09F
PRESCOTT       CLEAR     42  26  53 W9        29.99S
FLAGSTAFF      CLEAR     31  27  85 CALM      30.01S
PAYSON         CLEAR     39  39 100 CALM      29.96S
PAGE           CLEAR     50  27  40 W7        29.99R
$$

AZZ009>014-017-271000-
NORTHEAST ARIZONA

CITY           SKY/WX    TMP DP  RH WIND       PRES   REMARKS
WINSLOW        CLEAR     42  32  67 W12       29.95F
SAINT JOHNS    CLOUDY    44  37  76 W10       29.91F
WINDOW ROCK    MOCLDY    43  35  73 N3        29.93R
SHOW LOW       CLOUDY    36  32  87 CALM      29.97S
$$

AZZ023-271000-
GREATER PHOENIX AREA

CITY           SKY/WX    TMP DP  RH WIND       PRES   REMARKS
PHOENIX        CLEAR     60  51  72 CALM      29.84F
BUCKEYE        CLEAR     54  52  94 N8        29.86S
LUKE AFB       CLEAR     56  50  80 NW6       29.84F
DEER VALLEY    CLEAR     54  48  80 CALM      29.85F
SCOTTSDALE     CLEAR     56  50  80 CALM      29.86F
MESA-GATEWAY   CLEAR     54  45  71 CALM      29.87S
$$

AZZ027-028-271000-
SOUTHWEST MARICOPA COUNTY AND PINAL COUNTY

CITY           SKY/WX    TMP DP  RH WIND       PRES   REMARKS
CASA GRANDE    CLEAR     55  41  58 CALM      29.85S
GILA BEND      FAIR      55  21  25 S5        29.84S
$$

AZZ503-504-507>509-271000-
SOUTHEAST ARIZONA

CITY           SKY/WX    TMP DP  RH WIND       PRES   REMARKS
TUCSON         CLEAR     53  36  52 S6        29.90F
DAVIS-MONTHAN  CLEAR     51  39  62 SE5       29.88S
NOGALES        CLEAR     44  30  57 SE3       29.91F
SIERRA VISTA   CLEAR     48  33  56 W12       29.93S
DOUGLAS        CLEAR     39  31  72 VRB6      29.91F WCI  35
SAFFORD        CLEAR     44  43  96 NE3       29.88F
$$

AZZ020-021-025-026-031-271000-
SOUTHWEST ARIZONA

CITY           SKY/WX    TMP DP  RH WIND       PRES   REMARKS
YUMA           CLEAR     69  28  21 N10       29.84F
$$

CAZ031-033-041-043-047-048-061-271000-
SOUTHERN CALIFORNIA

CITY           SKY/WX    TMP DP  RH WIND       PRES   REMARKS
DOWNTOWN L.A.  CLEAR     61  52  72 CALM      29.92F
L.A. AIRPORT   PTCLDY    59  52  77 NE3       29.92F
SAN DIEGO      MOCLDY    60  50  69 CALM      29.92F
BURBANK        CLEAR     59  44  57 CALM      29.92F
ONTARIO        PTCLDY    57  46  66 CALM      29.92F
RIVERSIDE      CLEAR     59  46  62 E3        29.92F
PALM SPRINGS   CLEAR     66  47  50 SW5       29.93R
EL CENTRO NAS  CLEAR     63  43  48 NW3       29.88F
IMPERIAL       PTCLDY    65  42  43 VRB5      29.86S
BLYTHE         CLEAR     67  24  19 NW12      29.88S
NEEDLES        CLEAR     68  20  16 N14       29.93R
$$

NVZ020-UTZ003-271000-
SOUTHERN NEVADA-UTAH

CITY           SKY/WX    TMP DP  RH WIND       PRES   REMARKS
LAS VEGAS      PTCLDY    62  17  17 NW18G26   29.99S
SALT LAKE CITY MOCLDY    45  38  76 NW9       30.15S
$$

NMZ009-TXZ055-271000-
NEW MEXICO-WEST TEXAS

CITY           SKY/WX    TMP DP  RH WIND       PRES   REMARKS
ALBUQUERQUE    MOCLDY    45  40  82 NW8       29.91R
EL PASO        PTCLDY    54  36  50 W17G29    29.83S
$$


........................KEY........................
SKY/WX - SKY CONDITION/WEATHER
TMP    - TEMPERATURE IN FAHRENHEIT
DP     - DEW POINT IN FAHRENHEIT
RH     - RELATIVE HUMIDITY IN PERCENT
WIND   - DIRECTION AND SPEED IN MILES PER HOUR (MPH)
VRB    - VARIABLE WIND DIRECTION
PRES   - MEAN SEA LEVEL PRESSURE IN INCHES OF MERCURY
         F - FALLING PRESSURE   R - RISING PRESSURE
         S - STEADY PRESSURE
VSB    - VISIBILITY IN MILES
HX     - HEAT INDEX IN FAHRENHEIT
WCI    - WIND CHILL INDEX IN FAHRENHEIT
TC     - TEMPERATURE IN CELSIUS WHICH IS ALSO KNOWN AS
         TEMPERATURE IN CENTIGRADE
AFB    - AIR FORCE BASE
         LUKE AFB IS LUKE AIR FORCE BASE
         DAVIS-MONTHAN IS DAVIS-MONTHAN AIR FORCE BASE
NAS    - NAVAL AIR STATION
         EL CENTRO NAS IS EL CENTRO NAVAL AIR STATION
N/A    - NOT AVAILABLE



USA.gov is the U.S. government's official web portal to all federal, state and local government web resources and services.